Regional Weather Roundup
Issued by NWS

Home | Current Version | Previous Version | Graphics & Text | Print | Product List | Glossary On
Versions: 1 2 3 4 5 6 7 8 9 10 11 12 13 14 15 16 17 18 19 20 21 22 23 24 25 26 27 28 29 30 31 32 33 34 35 36 37 38 39 40 41 42 43 44 45 46 47 48 49 50
000
ASUS43 KLMK 270902
RWRKY
KENTUCKY REGIONAL WEATHER ROUNDUP
NATIONAL WEATHER SERVICE LOUISVILLE KY
500 AM EDT MON APR 27 2015

NOTE "FAIR" INDICATES FEW OR NO CLOUDS BELOW 12,000 FEET
WITH NO SIGNIFICANT WEATHER AND/OR OBSTRUCTIONS TO VISIBILITY.

KYZ001>023-026-027-061>063-070>075-271000-
WESTERN AND SOUTH CENTRAL KENTUCKY

CITY           SKY/WX    TMP DP  RH WIND       PRES   REMARKS
PADUCAH        PTCLDY    45  36  70 NE10      29.96S
HENDERSON      CLEAR     46  34  61 N6        29.97S
OWENSBORO      CLEAR     46  36  68 N5        29.97S
HOPKINSVILLE   CLEAR     46  38  76 N8        29.94R
BOWLING GREEN  CLEAR     45  36  70 N3        29.94R
GLASGOW        NOT AVBL
$$

KYZ024-025-028>034-038-045-046-053-271000-
NORTH CENTRAL KENTUCKY

CITY           SKY/WX    TMP DP  RH WIND       PRES   REMARKS
LOUISVILLE/SDF PTCLDY    46  35  65 N6        29.94R
LOUISVILLE/LOU CLEAR     45  36  70 N3        29.95R
FORT KNOX      CLEAR     42  35  77 NW6       29.92S
$$

KYZ035>037-039>044-047>052-055>060-089>105-271000-
NORTHEAST KENTUCKY

CITY           SKY/WX    TMP DP  RH WIND       PRES   REMARKS
LEXINGTON      CLEAR     40  34  79 N3        29.92R
COVINGTON      PTCLDY    36  33  89 W5        29.91S WCI  32
FRANKFORT      CLEAR     37  34  89 NW3       29.91R
$$

KYZ054-064>069-076>088-106>120-271000-
SOUTHEAST KENTUCKY

CITY           SKY/WX    TMP DP  RH WIND       PRES   REMARKS
JACKSON        PTCLDY    44  30  57 CALM      29.88R
LONDON         CLEAR     42  34  73 CALM      29.89R
SOMERSET       NOT AVBL
MIDDLESBORO    FOG       37  37 100 CALM      29.88S VSB 1/4
MONTICELLO     SUNNY     37  37 100 CALM      29.93S
$$



USA.gov is the U.S. government's official web portal to all federal, state and local government web resources and services.